Vorticity
nan nan nan nan nan nan nan nan nan nan nan nan nan nan nan nan nan nan nan nan nan nan nan nan nan nan nan nan nan nan nan nan nan nan nan nan nan nan nan nan nan nan nan nan nan nan nan nan nan nan nan nan nan nan
nan 8 8 9 9 9 9 10 10 9 9 9 9 11 11 10 10 14 10 10 13 9 2 10 18 18 14 4 4 10 8 8 9 13 13 12 21 15 7 8 12 9 11 22 12 -2 10 2 8 15 11 25 25 nan
nan 8 8 9 9 8 9 10 10 9 9 10 10 12 13 12 11 9 7 8 13 13 16 18 23 28 22 14 8 6 7 7 3 7 12 11 14 15 9 7 7 9 12 12 6 3 5 14 21 10 6 14 17 nan
nan 8 7 8 8 8 9 9 9 9 9 10 12 13 12 13 12 9 8 9 12 13 13 13 6 6 16 17 17 9 3 7 10 12 13 8 13 9 7 10 9 7 5 12 10 6 10 15 19 10 -17 2 22 nan
nan 9 8 8 8 8 9 10 9 9 9 11 11 11 11 12 15 15 15 14 12 8 7 6 9 17 18 13 13 11 8 8 13 11 11 11 6 1 8 7 14 15 14 11 9 10 9 6 -1 12 41 26 -0 nan
nan 10 9 8 8 8 9 9 10 10 9 11 11 10 14 18 17 16 18 16 15 10 7 5 15 26 21 17 14 12 13 15 11 11 9 8 8 11 9 9 16 12 5 11 14 12 11 4 13 19 25 23 8 nan
nan 10 10 9 8 8 9 9 10 10 10 12 12 14 24 27 10 4 11 15 14 10 9 9 12 18 24 15 12 14 11 11 12 11 10 9 12 13 12 8 6 17 17 13 25 15 6 4 10 20 8 7 8 nan
nan 11 10 10 9 9 8 9 10 10 10 12 13 18 24 18 11 17 15 9 7 9 11 11 8 6 12 20 21 14 16 11 12 8 10 12 13 13 10 7 7 5 12 9 12 15 13 5 17 21 10 8 9 nan
nan 10 11 10 10 9 9 9 11 11 12 13 19 22 15 11 19 16 12 11 10 11 12 9 5 12 6 14 15 11 15 17 15 14 10 9 11 10 12 14 17 11 7 10 9 14 13 19 14 -0 4 7 6 nan
nan 10 11 10 9 9 9 10 11 13 16 24 22 15 10 17 17 5 5 9 12 10 9 8 8 9 16 15 4 15 14 16 13 15 15 12 7 11 17 17 12 14 14 10 12 10 9 5 5 15 12 8 7 nan
nan 10 10 10 10 9 9 10 9 18 33 20 5 7 21 12 -3 4 10 12 10 11 10 7 9 12 12 12 17 13 8 14 17 10 15 21 14 16 19 13 2 9 10 11 10 8 9 9 9 9 9 9 23 nan
nan 11 11 10 10 9 9 11 15 13 10 13 16 12 11 9 11 11 11 13 6 12 13 8 4 13 16 15 16 13 8 10 12 12 13 13 10 8 5 15 16 11 10 12 13 14 13 13 10 10 11 8 11 nan
nan 11 10 10 10 9 11 13 11 11 14 16 12 12 10 9 10 15 9 8 12 10 7 10 13 14 13 13 12 10 14 14 9 5 10 14 12 11 14 2 3 13 11 10 12 12 15 17 15 11 10 14 14 nan
nan 11 10 11 10 11 12 9 10 19 19 13 9 11 14 10 6 9 10 11 12 8 9 12 14 13 11 8 12 13 10 12 11 10 14 15 11 10 5 5 14 9 10 11 10 11 14 17 19 15 13 23 19 nan
nan 10 15 24 24 14 7 7 18 16 10 14 10 10 11 9 10 7 8 14 16 10 13 15 14 11 9 14 15 10 10 12 9 13 15 9 7 8 9 9 10 9 9 10 11 12 11 10 21 23 23 15 8 nan
nan 20 29 22 15 4 8 16 14 11 12 12 10 7 10 11 11 14 16 11 7 12 14 16 14 15 11 9 12 8 8 13 16 13 12 11 5 6 7 9 9 9 9 10 11 11 13 13 8 24 31 12 12 nan
nan 26 20 2 4 14 14 11 12 10 9 13 11 9 8 14 15 16 13 7 12 16 16 14 12 9 15 15 9 9 9 8 10 14 15 11 8 6 7 8 10 10 10 12 11 10 14 12 15 25 13 14 15 nan
nan 16 3 3 13 23 18 10 9 12 13 9 10 11 10 12 14 11 10 14 16 14 13 14 13 13 11 10 8 5 7 9 11 10 10 6 8 12 13 10 9 9 10 13 11 13 16 18 20 23 21 8 9 nan
nan -1 -2 9 14 17 17 12 9 11 13 16 16 8 11 12 10 12 16 13 12 13 14 14 12 11 9 6 4 7 8 11 11 9 10 11 13 11 8 15 16 11 11 11 12 14 14 18 23 23 17 13 14 nan
nan 11 16 16 13 8 11 15 12 7 10 16 13 12 12 12 13 10 9 8 14 14 11 12 11 9 7 7 11 11 10 11 10 12 11 13 12 11 12 14 13 13 13 13 19 19 14 12 12 11 8 23 23 nan
nan 20 20 15 8 7 11 15 12 11 9 8 10 14 14 11 7 13 12 9 7 13 14 11 9 11 15 19 17 17 18 18 20 14 11 14 13 14 17 17 15 14 13 18 16 13 17 12 8 8 8 6 12 nan
nan 10 9 13 9 12 11 9 6 13 16 10 16 16 11 11 11 16 11 10 11 13 15 12 9 9 11 14 20 21 20 19 19 17 17 19 18 18 17 15 15 17 18 18 18 12 10 12 12 12 9 9 8 nan
nan 15 13 12 10 9 12 16 14 8 10 15 15 11 12 13 16 14 11 13 12 14 12 7 9 12 10 8 11 11 13 13 13 12 12 14 15 15 14 13 14 15 19 23 21 14 10 9 10 10 5 10 17 nan
nan 12 15 16 9 7 15 15 13 13 10 8 8 11 14 14 10 12 14 13 15 11 9 10 8 10 12 11 6 7 9 11 11 12 12 11 9 11 13 11 11 13 21 24 18 14 12 9 13 16 10 16 14 nan
nan 14 13 10 15 13 13 14 9 10 10 12 12 13 12 12 13 15 12 12 14 13 14 12 8 9 12 11 13 14 11 9 9 11 11 10 9 8 9 11 10 7 11 15 13 12 12 10 15 13 4 5 12 nan
nan 14 10 12 14 12 9 12 17 12 11 11 13 13 13 10 15 13 12 15 15 12 12 11 11 14 14 14 13 16 16 9 11 15 15 11 7 11 18 16 14 13 14 10 11 11 12 13 15 13 19 19 18 nan
nan 16 9 4 9 11 13 16 12 14 14 11 12 14 13 12 16 19 15 5 10 18 15 9 11 10 13 20 11 9 17 16 12 13 14 11 8 10 13 12 16 17 14 15 15 15 17 15 14 16 14 14 15 nan
nan 13 13 11 11 11 9 10 11 12 13 13 15 7 5 21 20 14 16 20 9 11 10 12 13 13 12 6 13 13 7 8 16 20 17 15 13 12 12 12 8 11 12 13 12 14 15 17 18 14 12 10 10 nan
nan 11 12 10 8 11 15 12 12 10 9 16 12 15 15 11 12 16 15 12 10 5 10 15 9 14 25 12 9 11 7 13 19 12 8 9 10 11 11 11 16 16 10 7 10 12 9 13 18 19 14 12 10 nan
nan 13 13 15 13 10 11 11 14 15 12 12 11 11 13 14 15 15 10 10 17 18 6 9 17 16 7 7 18 17 12 11 13 12 12 13 11 10 10 11 12 12 15 14 13 13 12 11 11 13 13 16 16 nan
nan 14 14 15 16 15 13 8 9 15 13 13 13 13 16 14 11 12 13 13 9 8 18 13 12 18 13 18 15 12 9 7 10 20 17 12 9 11 13 12 10 12 13 12 15 15 16 12 10 12 14 12 12 nan
nan 13 15 12 16 19 7 8 22 13 5 11 15 13 12 13 15 12 13 14 12 4 11 18 12 13 16 16 12 10 17 17 8 12 18 15 11 11 13 12 12 12 8 8 13 13 11 11 14 14 11 12 15 nan
nan nan nan nan nan nan nan nan nan nan nan nan nan nan nan nan nan nan nan nan nan nan nan nan nan nan nan nan nan nan nan nan nan nan nan nan nan nan nan nan nan nan nan nan nan nan nan nan nan nan nan nan nan nan
CAPE
0 0 0 0 0 0 0 0 0 0 0 3 4 3 3 2 0 0 0 0 0 0 0 0 0 0 0 0 0 0 0 0 0 29 55 58 155 34 5 3 0 0 2 48 125 141 36 82 255 513 253 369 208 123
0 0 0 0 0 0 0 0 0 0 0 1 3 4 2 3 2 0 0 0 0 0 0 0 0 0 0 0 0 0 0 0 0 47 29 237 297 283 46 44 37 19 91 273 171 364 247 230 172 64 314 926 1641 1237
0 0 0 0 0 0 0 0 0 0 0 1 4 2 4 6 8 3 0 0 0 0 0 0 0 0 0 0 0 0 0 0 0 0 0 196 506 251 357 57 13 226 59 84 65 20 0 0 42 90 427 877 1606 1728
0 0 0 0 0 0 0 0 0 0 0 3 3 5 5 7 10 9 3 0 1 0 0 0 0 0 0 0 0 0 0 0 0 0 0 0 0 138 284 480 307 56 16 0 0 21 0 2 61 67 11 321 1157 1196
0 0 0 0 0 0 0 0 0 0 0 2 2 2 3 6 11 9 7 2 7 1 0 0 0 0 0 0 0 0 0 0 0 0 0 0 0 5 634 248 77 149 82 55 330 62 8 1 0 25 6 676 1108 1069
0 0 0 0 0 0 0 0 0 0 0 3 2 3 2 8 10 7 1 4 3 7 5 0 0 0 0 0 0 0 0 0 0 0 0 0 0 0 87 256 290 13 333 396 0 0 13 0 0 299 1017 661 674 802
0 0 0 0 0 0 0 0 0 1 4 2 1 5 2 3 6 1 3 3 0 5 6 4 0 3 0 0 7 19 3 0 0 0 0 0 0 0 12 147 611 255 398 344 293 127 90 22 657 811 607 374 513 773
0 0 0 0 0 0 0 0 0 0 0 0 3 0 0 0 0 5 3 0 0 9 7 20 0 0 17 204 171 179 55 64 0 0 0 0 0 0 0 231 128 14 34 51 102 408 701 1385 1015 672 606 631 625 660
0 0 0 0 0 0 0 0 0 0 1 0 0 0 3 1 5 5 0 0 1 4 8 26 31 45 159 52 0 378 146 104 7 1 0 0 0 1 1 48 13 0 6 39 155 576 506 760 991 897 736 698 625 591
0 0 0 0 0 0 0 0 0 0 0 0 0 3 26 2 0 0 1 5 10 9 10 5 19 29 260 136 2 356 534 423 50 19 8 19 0 358 952 417 566 530 355 374 309 384 398 476 337 521 1023 790 732 654
0 0 0 0 0 0 0 0 0 0 0 0 3 9 0 0 0 7 9 6 9 18 24 4 0 38 223 420 566 117 109 765 476 235 298 55 26 529 498 863 1001 956 744 500 323 412 390 326 260 316 390 660 610 771
0 0 0 0 0 0 0 0 0 0 2 0 0 0 0 4 9 27 28 74 32 21 19 37 183 216 220 682 724 330 355 631 251 574 524 152 916 807 3 0 788 764 652 562 650 722 724 732 579 532 468 232 9 543
0 0 0 0 0 0 0 0 0 0 0 0 0 4 4 11 2 21 46 195 279 184 214 507 584 628 661 811 498 560 195 142 485 413 65 164 822 706 89 35 359 388 303 302 393 654 785 863 854 932 1217 816 558 523
0 0 0 0 0 0 0 0 0 0 2 2 10 1 22 23 55 131 178 345 646 555 540 923 590 657 475 278 114 151 245 183 151 70 291 1184 633 565 435 730 617 345 334 307 368 547 869 1226 1043 1240 1273 1168 1553 1230
0 0 0 0 0 0 0 0 0 1 2 2 20 7 32 56 77 164 224 281 279 232 481 575 520 783 563 372 443 11 215 109 72 543 941 891 714 634 556 393 210 129 224 448 517 555 778 1312 1552 1228 1365 1735 1024 1308
0 0 0 0 0 0 0 0 3 5 12 0 0 54 86 106 88 149 161 293 432 339 249 345 255 276 439 546 359 209 174 234 574 606 949 617 617 499 472 452 332 238 350 332 619 775 661 1212 1544 1136 1733 1883 945 1241
0 3 0 0 0 0 0 0 3 3 9 22 83 88 136 123 173 128 363 894 478 608 283 196 84 207 351 446 340 525 533 692 546 230 373 723 531 530 691 546 457 392 423 408 845 942 1050 946 1633 1429 1803 665 1131 867
0 0 0 0 0 0 2 2 6 16 6 19 111 137 152 367 321 414 573 809 678 328 117 106 28 18 158 109 273 459 321 311 280 281 219 682 688 1041 516 329 569 463 387 504 858 788 1024 903 1802 1935 920 559 610 493
6 0 0 0 0 0 13 6 17 19 81 135 232 262 193 377 183 559 586 580 206 153 60 47 40 43 34 82 52 28 88 130 233 264 249 617 611 463 631 442 575 283 772 695 709 942 1031 1146 951 1226 336 204 133 110
0 0 0 0 0 4 3 46 59 31 50 95 163 258 142 425 595 888 132 36 23 22 29 45 57 44 40 32 36 27 21 106 279 369 176 227 367 406 468 398 206 401 665 696 1044 676 705 253 7 1 0 0 28 62
0 0 0 0 4 7 13 77 214 96 80 103 172 183 445 430 307 411 99 90 8 6 31 73 26 7 5 6 17 24 72 381 559 384 323 167 106 166 245 363 607 510 469 891 804 140 207 57 4 0 0 3 22 135
0 0 1 0 16 4 6 0 3 83 161 146 157 202 387 413 379 548 372 132 24 28 40 38 8 15 10 8 6 24 79 227 111 6 1 5 96 23 53 206 349 323 492 507 739 206 69 51 16 1 0 0 0 30
0 0 0 23 8 2 0 1 28 86 141 212 228 395 369 367 400 283 480 391 283 9 0 10 54 70 32 25 8 5 10 10 10 2 4 5 3 2 5 6 11 11 18 27 552 470 17 0 0 62 76 43 67 109
0 5 18 27 27 0 14 56 70 118 335 261 68 50 221 575 422 522 494 848 769 65 30 124 102 131 162 59 61 42 36 37 44 30 40 8 5 6 10 19 11 2 3 4 7 6 8 37 35 86 77 90 25 181
6 0 0 0 24 21 5 44 88 178 153 86 76 247 434 390 399 351 397 536 822 720 363 221 135 102 91 67 238 345 137 279 221 180 139 131 91 66 35 26 29 26 12 31 65 62 46 54 28 100 123 87 58 49
1 0 0 0 2 8 46 42 173 177 104 90 51 164 251 419 289 340 360 421 515 342 559 486 108 380 116 152 107 101 81 162 63 74 149 127 37 6 66 85 77 122 93 91 75 122 112 94 81 52 59 32 8 72
0 0 2 0 18 87 156 210 246 199 140 150 173 284 446 218 299 298 183 443 345 526 573 18 123 126 66 29 105 51 50 43 110 50 103 32 14 8 2 0 0 0 0 19 34 39 33 33 25 40 49 33 16 12
1 7 6 25 36 30 129 163 142 116 93 156 342 331 275 355 405 504 643 447 403 294 203 232 149 157 146 12 0 10 5 50 42 45 39 28 7 0 0 0 0 0 0 0 0 1 1 4 18 22 11 4 1 1
5 14 31 29 37 63 74 158 221 217 296 302 403 478 514 696 404 537 497 537 344 169 112 204 192 144 237 106 158 41 65 36 58 75 45 36 36 28 8 1 0 0 0 0 0 0 0 0 0 2 2 0 0 0
14 33 28 36 29 36 64 136 246 201 316 435 394 835 804 651 626 617 561 921 362 507 335 245 231 168 139 40 110 109 72 97 13 37 54 48 35 25 14 2 0 0 0 0 0 0 0 0 0 0 0 0 1 0
16 36 35 43 63 62 143 155 196 366 317 292 463 748 656 632 818 849 676 625 475 245 313 238 174 84 92 172 119 97 57 56 30 26 34 40 37 32 27 9 0 0 0 0 0 0 0 0 0 0 0 0 0 0
38 42 38 18 30 133 136 27 213 340 363 474 506 735 684 849 688 782 894 752 581 451 51 220 170 221 134 52 37 23 5 13 3 4 16 21 33 44 38 19 11 3 0 0 0 0 0 0 0 0 0 0 0 0
42 50 30 46 268 159 221 393 381 285 363 387 325 576 642 527 548 549 598 711 642 397 518 357 523 344 399 68 18 4 0 0 0 0 0 0 0 0 3 21 20 15 10 7 2 0 0 0 0 0 0 0 0 0